Enid, OK

11:08 PM CST on December 03, 2016 (GMT -0600)
Enid Woodring Municipal

Weather History for KWDG - August, 2013

Change the Weather History Date:

Sunday, August 18, 2013

  Actual Average Record
Temperature  
Mean Temperature 74 °F -  
Max Temperature 86 °F 91 °F 105 °F (2011)
Min Temperature 62 °F 68 °F 62 °F (2013)
Cooling Degree Days 9    
Growing Degree Days 24 (Base 50)    
Moisture  
Dew Point 63 °F    
Average Humidity 80    
Maximum Humidity 100    
Minimum Humidity 45    
Precipitation  
Precipitation 0.00 in - - ()
Sea Level Pressure  
Sea Level Pressure 30.08 in    
Wind  
Wind Speed 6 mph (ESE)    
Max Wind Speed 16 mph    
Max Gust Speed -    
Visibility 10 miles    
Events      
Averages and records for this station are not official NWS values.
T = Trace of Precipitation, MM = Missing Value Source: NWS Daily Summary

Daily Weather History Graph

Daily Weather History Graph

Search for Another Location

Airport or City:

Trip Planner

Search our weather history database for the weather conditions in past years. The results will help you decide how hot, cold, wet, or windy it might be!

Date:

Astronomy

Aug. 18, 2013 Rise Set
Actual Time 6:51 AM CDT 8:17 PM CDT
Civil Twilight 6:24 AM CDT 8:44 PM CDT
Nautical Twilight 5:51 AM CDT 9:17 PM CDT
Astronomical Twilight 5:17 AM CDT 9:51 PM CDT
Moon 6:23 PM CDT (8/18) 4:05 AM CDT (8/18)
Length of Visible Light 14h 20m
Length of Day
13h 25m
Waxing Gibbous, 92% of the Moon is Illuminated
Aug 18
Waxing Gibbous
Aug 20
Full
Aug 28
Last Quarter
Sep 5
New
Sep 12
First Quarter

Hourly Weather History & Observations

Time (CDT) Temp. Heat Index Dew Point Humidity Pressure Visibility Wind Dir Wind Speed Gust Speed Precip Events Conditions
12:15 AM 69.8 °F - 60.8 °F 73% 30.10 in 10.0 mi East 9.2 mph - N/A   Scattered Clouds
12:35 AM 68.0 °F - 60.8 °F 78% 30.10 in 10.0 mi ESE 8.1 mph - N/A   Scattered Clouds
12:55 AM 68.0 °F - 60.8 °F 78% 30.10 in 10.0 mi East 5.8 mph - N/A   Clear
1:15 AM 66.2 °F - 60.8 °F 83% 30.10 in 10.0 mi East 5.8 mph - N/A   Clear
1:35 AM 66.2 °F - 60.8 °F 83% 30.10 in 10.0 mi Calm Calm - N/A   Scattered Clouds
1:55 AM 64.4 °F - 60.8 °F 88% 30.10 in 10.0 mi Calm Calm - N/A   Scattered Clouds
2:15 AM 64.4 °F - 60.8 °F 88% 30.10 in 10.0 mi Calm Calm - N/A   Scattered Clouds
2:35 AM 64.4 °F - 60.8 °F 88% 30.09 in 10.0 mi East 3.5 mph - N/A   Clear
2:55 AM 64.4 °F - 60.8 °F 88% 30.09 in 10.0 mi Calm Calm - N/A   Clear
3:15 AM 62.6 °F - 60.8 °F 94% 30.09 in 10.0 mi Calm Calm - N/A   Clear
3:35 AM 64.4 °F - 60.8 °F 88% 30.09 in 10.0 mi Calm Calm - N/A   Scattered Clouds
3:55 AM 64.4 °F - 60.8 °F 88% 30.09 in 10.0 mi East 4.6 mph - N/A   Scattered Clouds
4:15 AM 64.4 °F - 60.8 °F 88% 30.09 in 10.0 mi East 4.6 mph - N/A   Scattered Clouds
4:35 AM 64.4 °F - 60.8 °F 88% 30.09 in 10.0 mi East 5.8 mph - N/A   Scattered Clouds
4:55 AM 64.4 °F - 60.8 °F 88% 30.09 in 10.0 mi ESE 6.9 mph - N/A   Scattered Clouds
5:15 AM 62.6 °F - 60.8 °F 94% 30.08 in 10.0 mi East 5.8 mph - N/A   Scattered Clouds
5:35 AM 62.6 °F - 60.8 °F 94% 30.08 in 10.0 mi ESE 4.6 mph - N/A   Scattered Clouds
5:55 AM 62.6 °F - 60.8 °F 94% 30.09 in 10.0 mi East 3.5 mph - N/A   Clear
6:15 AM 64.4 °F - 60.8 °F 88% 30.09 in 10.0 mi ESE 5.8 mph - N/A   Scattered Clouds
6:50 AM 64.4 °F - 60.8 °F 88% 30.10 in 10.0 mi Calm Calm - N/A   Scattered Clouds
7:50 AM 64.4 °F - 64.4 °F 100% 30.12 in 7.0 mi Calm Calm - N/A   Mostly Cloudy
9:50 AM 73.4 °F - 64.4 °F 73% 30.14 in 10.0 mi SSE 4.6 mph - N/A   Overcast
10:50 AM 77.0 °F - 64.4 °F 65% 30.14 in 10.0 mi SE 8.1 mph - N/A   Overcast
11:50 AM 80.6 °F 82.3 °F 64.4 °F 58% 30.13 in 10.0 mi SE 10.4 mph - N/A   Overcast
12:50 PM 80.6 °F 81.8 °F 62.6 °F 54% 30.11 in 10.0 mi SSE 9.2 mph - N/A   Overcast
2:50 PM 84.2 °F 85.0 °F 62.6 °F 48% 30.07 in 10.0 mi SE 11.5 mph - N/A   Mostly Cloudy
4:50 PM 86.0 °F 86.6 °F 62.6 °F 45% 30.05 in 10.0 mi ESE 11.5 mph - N/A   Clear
5:50 PM 84.2 °F 85.6 °F 64.4 °F 51% 30.04 in 10.0 mi ESE 16.1 mph - N/A   Partly Cloudy
6:50 PM 82.4 °F 83.9 °F 64.4 °F 54% 30.03 in 10.0 mi ESE 12.7 mph - N/A   Partly Cloudy
7:50 PM 77.0 °F - 66.2 °F 69% 30.03 in 10.0 mi ESE 11.5 mph - N/A   Partly Cloudy
8:50 PM 71.6 °F - 66.2 °F 83% 30.04 in 10.0 mi ESE 11.5 mph - N/A   Partly Cloudy
9:15 PM 71.6 °F - 64.4 °F 78% 30.04 in 10.0 mi SE 5.8 mph - N/A   Clear
9:35 PM 69.8 °F - 64.4 °F 83% 30.05 in 7.0 mi SE 5.8 mph - N/A   Clear
9:55 PM 69.8 °F - 64.4 °F 83% 30.06 in 10.0 mi SE 6.9 mph - N/A   Clear
10:15 PM 69.8 °F - 64.4 °F 83% 30.06 in 10.0 mi SE 6.9 mph - N/A   Clear
10:35 PM 69.8 °F - 64.4 °F 83% 30.07 in 10.0 mi ESE 6.9 mph - N/A   Clear
10:55 PM 69.8 °F - 64.4 °F 83% 30.08 in 10.0 mi ESE 6.9 mph - N/A   Clear
11:15 PM 69.8 °F - 64.4 °F 83% 30.08 in 10.0 mi ESE 6.9 mph - N/A   Clear
11:35 PM 69.8 °F - 64.4 °F 83% 30.08 in 10.0 mi ESE 6.9 mph - N/A   Clear
11:55 PM 69.8 °F - 64.4 °F 83% 30.08 in 10.0 mi ESE 6.9 mph - N/A   Clear